Regional Weather Roundup
Issued by NWS

Home | Current Version | Previous Version | Text Only | Print | Product List | Glossary Off
Versions: 1 2 3 4 5 6 7 8 9 10 11 12 13 14 15 16 17 18 19 20 21 22 23 24 25 26 27 28 29 30 31 32 33 34 35 36 37 38 39 40 41 42 43 44 45 46 47 48 49 50

000
ASUS43 KLSX 020259
RWRMO

WEATHER SUMMARY FOR MISSOURI
NATIONAL WEATHER SERVICE SPRINGFIELD MO
900 PM CST SUN MAR 01 2015

NOTE: "FAIR" INDICATES FEW OR NO CLOUDS BELOW 12,000 FEET WITH NO
       SIGNIFICANT WEATHER AND/OR OBSTRUCTIONS TO VISIBILITY.
       CURRENT SKY AND/OR WEATHER CONDITIONS ARE NOT AVAILABLE FOR
       CHILLICOTHE AND FARMINGTON.

MOZ001>031-035>038-043-044-053-054-020400-
...NORTHERN AND WESTERN MISSOURI...

CITY           SKY/WX    TMP DP  RH WIND       PRES   REMARKS
KANSAS CTY INT FAIR      25  19  78 CALM      30.44R
KANSAS C DTWN  CLEAR     29  21  72 CALM      30.45R
LEE`S SUMMIT   PTCLDY    28  19  69 CALM      30.44R
ST JOSEPH      MOCLDY    27  22  81 CALM      30.46R
CHILLICOTHE      N/A     25  20  81 CALM      30.46R
KIRKSVILLE     MOCLDY    23  19  85 W5        30.44R WCI  17

$$
MOZ066>068-077>081-088>096-101>105-020400-
...SOUTHWEST MISSOURI...

CITY           SKY/WX    TMP DP  RH WIND       PRES   REMARKS
SPRINGFIELD    CLOUDY    29  23  78 N5        30.41R WCI  24
JOPLIN         PTCLDY    27  21  78 NE6       30.44R WCI  20

$$
MOZ032>034-039>042-045>050-055>058-069>072-020400-
...CENTRAL MISSOURI...

CITY           SKY/WX    TMP DP  RH WIND       PRES   REMARKS
COLUMBIA       MOCLDY    20  17  88 SW3       30.44R
JEFFERSON CITY MOCLDY    23  19  85 CALM      30.47R
ROLLA          MOCLDY    25  20  81 NW5       30.42R WCI  19
SEDALIA        PTCLDY    26  18  71 CALM      30.46R
WHITEMAN AFB   PTCLDY    16  13  89 S6        30.44R WCI   7
OSAGE BEACH    PTCLDY    25  19  80 CALM      30.45R

$$
MOZ051-052-059>065-020400-
...EAST CENTRAL MISSOURI...

CITY           SKY/WX    TMP DP  RH WIND       PRES   REMARKS
ST LOUIS INTL  MOCLDY    26  19  74 CALM      30.45R
SPIRIT OF STL  PTCLDY    16  15  96 SW3       30.45R
ST CHARLES     PTCLDY    27  21  78 W5        30.46R WCI  22

$$
MOZ072>076-082>087-097>100-106>115-020400-
...SOUTH CENTRAL AND SOUTHEAST MISSOURI...

CITY           SKY/WX    TMP DP  RH WIND       PRES   REMARKS
CAPE GIRARDEAU PTCLDY    33  28  81 N8        30.42R WCI  26
FARMINGTON     CLOUDY    30  25  80 N8        30.45R WCI  23
POPLAR BLUFF   CLOUDY    35  29  78 N12       30.41R WCI  27
WEST PLAINS    CLOUDY    31  25  78 N7        30.40R WCI  24

$$



USA.gov is the U.S. government's official web portal to all federal, state and local government web resources and services.